Location: Grossmotten
(48.5500°N, 15.3833°E)
Time: 06:09:08
(UTC+00:00)

SJ-12 - Pass Details

Date: 15 November 2019
Orbit: 570 x 584 km, 97.6° (Epoch: 06 December)

Event Time Altitude Azimuth Distance (km) Brightness Sun altitude
Rises 04:12:56 0° 15° (NNE) 2,821 7.5 -18.6°
Reaches altitude 10° 04:15:06 10° 17° (NNE) 1,917 6.7 -18.2°
Maximum altitude 04:19:15 71° 101° (ESE) 622 4.2 -17.5°
Drops below altitude 10° 04:23:23 10° 187° (S) 1,902 6.6 -16.9°
Sets 04:25:32 0° 189° (S) 2,796 7.4 -16.5°
